Flag for Italy Weather past 2 weeks in Venice, Italy

Now
63 °F

Sunny.


Feels Like: 63 °F
Forecast: 45 / 62 °F
Wind: 9 mph from Southwest

Location: Venice / Tessera

Current Time: Apr 1, 2015 at 12:05:23 PM

Latest Report: Apr 1, 2015 at 11:20 AM


Visibility: 10 mi

Pressure: 29.80 "Hg

Humidity: 56%

Dew point: 46 °F

Location of VeniceLocation

Historic Weather in Venice — Graph

°F

Venice temperature yesterday

Maximum temperature yesterday: 63 °F (at 3:50 PM)
Minimum temperature yesterday: 50 °F (at 1:20 AM)
Average temperature yesterday: 55 °F

Past Weeks' High & Low Weather Summary

 TemperatureHumidityPressure
High63 °F (Mar 19, 4:20 PM)100% (Mar 21, 4:50 AM)30.36 "Hg (Mar 21, 4:50 AM)
Low39 °F (Mar 21, 5:20 AM)34% (Mar 28, 3:50 PM)29.47 "Hg (Mar 25, 5:20 PM)
Average52 °F76%29.94 "Hg
* Reported Mar 17 9:20 AM — Apr 1 10:50 AM, Venice, Weather by CustomWeather, © 2015

Note: Actual official high and low records may vary slightly from our data, if they occured in-between our weather recording intervals... More about our weather records

Advertising

Venice weather history for previous 24 hours

 ConditionsComfort  
Time TempWeatherWind HumidityBarometerVisibility
10:50 AM
Wed, Apr 1
61 °FSunny.10 mph63%29.80 "Hg10 mi
10:20 AM59 °FPassing clouds.8 mph72%29.80 "HgN/A
9:50 AM57 °FSunny.7 mph77%29.80 "Hg10 mi
9:20 AM55 °FClear.8 mph82%29.80 "Hg4 mi
8:50 AM54 °FClear.6 mph88%29.80 "Hg4 mi
8:20 AM52 °FClear.6 mph88%29.77 "Hg4 mi
7:50 AM50 °FClear.5 mph94%29.77 "Hg4 mi
7:20 AM48 °FClear.5 mph94%29.77 "Hg4 mi
6:50 AM48 °FClear.3 mph94%29.74 "Hg4 mi
6:20 AM48 °FClear.7 mph94%29.74 "Hg5 mi
5:50 AM50 °FClear.7 mph94%29.74 "Hg10 mi
5:20 AM50 °FClear.7 mph94%29.74 "Hg10 mi
4:50 AM50 °FClear.7 mph94%29.74 "Hg5 mi
4:20 AM50 °FClear.8 mph94%29.74 "Hg5 mi
3:50 AM50 °FPassing clouds.8 mph94%29.71 "Hg4 mi
3:20 AM52 °FPassing clouds.7 mph94%29.71 "Hg6 mi
2:50 AM52 °FPassing clouds.6 mph94%29.71 "HgN/A
2:20 AM52 °FPassing clouds.6 mph94%29.71 "HgN/A
1:50 AM54 °FPassing clouds.5 mph88%29.71 "HgN/A
1:20 AM54 °FPassing clouds.6 mph88%29.71 "HgN/A
12:50 AM55 °FPassing clouds.7 mph88%29.68 "HgN/A
12:20 AM55 °FPassing clouds.9 mph88%29.68 "HgN/A
11:50 PM
Tue, Mar 31
57 °FPassing clouds.12 mph82%29.68 "HgN/A
11:20 PM57 °FPassing clouds.15 mph82%29.65 "HgN/A
10:50 PM55 °FPassing clouds.16 mph88%29.65 "Hg4 mi
10:20 PM55 °FPassing clouds.14 mph88%29.65 "Hg4 mi
9:50 PM55 °FPassing clouds.12 mph88%29.62 "Hg4 mi
9:20 PM57 °FPassing clouds.10 mph88%29.62 "Hg4 mi
8:50 PM55 °FPassing clouds.13 mph94%29.62 "Hg4 mi
8:20 PM55 °FPartly sunny.13 mph94%29.62 "Hg4 mi
7:50 PM55 °FPassing clouds.13 mph88%29.59 "Hg4 mi
7:20 PM57 °FPassing clouds.13 mph82%29.59 "HgN/A
6:50 PM57 °FPassing clouds.13 mph82%29.59 "HgN/A
6:20 PM61 °FPassing clouds.10 mph63%29.59 "HgN/A
5:50 PM61 °FPassing clouds.12 mph63%29.59 "HgN/A
5:20 PM61 °FPassing clouds.13 mph68%29.62 "HgN/A
4:50 PM59 °FPassing clouds.14 mph72%29.62 "Hg6 mi
4:20 PM61 °FPassing clouds.12 mph77%29.62 "HgN/A
3:50 PM63 °FPassing clouds.8 mph64%29.65 "HgN/A
3:20 PM61 °FSunny.10 mph68%29.65 "Hg10 mi
2:50 PM61 °FPassing clouds.8 mph68%29.68 "HgN/A
2:20 PM61 °FPassing clouds.9 mph72%29.68 "HgN/A
1:50 PM59 °FPassing clouds.10 mph77%29.71 "HgN/A
1:20 PM57 °FScattered clouds.9 mph82%29.71 "HgN/A
12:50 PM59 °FScattered clouds.7 mph72%29.74 "HgN/A
12:20 PM59 °FPassing clouds.6 mph72%29.74 "HgN/A
Weather by CustomWeather, © 2015

See weather overviewHow to use our weather pages